Погода в Жерновке

Россия / Новосибирская область     54°20′05″N   84°41′24″E
темп.,
°C
ветер,
м/с
пор.,
м/с
влажн.,
%
обл.,
%
осадки,
мм/ч
давл.,
гПа
погр.,
м
16 мая, вс
вс1601:00+12юз21075100 0.3 1018189
04:00+12юз3108698 0.6 1016226
07:00+12юз2108686 0.7 1016297
10:00+18зюз46595 0.2 1014560
13:00+24зюз584290 0.2 10121641
16:00+26зсз6103580 0.0 10102699
19:00+17ююз3770100 0.4 1009194
22:00+15в0089100 2.1 101111
17 мая, пн
пн1701:00+13ю1293100 2.3 101134
04:00+13зсз2598100 0.6 1011250
07:00+12ссв2693100 0.6 1013269
10:00+16ссв347082 0.0 1014775
13:00+20ссз3450100 0.0 10141481
16:00+20сз5549100 0.0 10141625
19:00+18сз45595 0.0 10151066
22:00+12ююв11785 0.0 101511
18 мая, вт
вт1801:00+11ю2381100 0.0 101355
04:00+12ююз31292100 0.9 1012376
07:00+13юз21390100 0.9 1009516
10:00+19юз596494 0.0 1006626
13:00+25з613425 0.0 10042177
16:00+25зсз815426 0.0 10032809
19:00+22сз6115361 0.0 10031758
22:00+16ссз387626 0.0 1005412
19 мая, ср
ср1901:00+11с119697 0.0 100615
04:00+12ссв1394100 0.1 1005139
07:00+10св4894100 1.3 1005505
10:00+7ссв51194100 1.8 1007719
13:00+8ссв51075100 5.3 10081106
16:00+11с7939100 0.0 10101641
19:00+9с61042100 0.0 10121799
22:00+5с39495 0.0 1014295
20 мая, чт
чт2001:00+2ссз21625 0.0 101613
04:000ссз28715 0.0 1016173
07:00+3с3861100 0.0 1018329
10:00+6ссз5736100 0.0 10192429
13:00+7с5632100 0.0 10192399
16:00+8ссз5730100 0.0 10192957
19:00+8с46305 0.0 10202380
22:00+2юз004994 0.0 102210